STARLINK-5263 (54193 NORAD) Tracking and Keplerian Element Data

This shows tracking and keplerian element data for the satellite.

Feedback or suggestion? Click here.




ElementValue
Catalog54193
NameSTARLINK-5263
Epoch Orbit407
Epoch Day325.25001157
Epoch Year2022
RAAN24.0881
Inclination53.218
Eccentricity0.0003327
Argument of Perigee17.1263
Mean Anonmoly14.9153
Mean Motion15.73186233
Decay Rate0.00031552
L11 54193U 22141AN 22325.25001157 .00031552 00000+0 22848-3 0 9999
L22 54193 53.2180 24.0881 0003327 17.1263 14.9153 15.73186233 4074



Live tracking and technical data element details for STARLINK-5263 (NORAD 54193). STARLINK-5263 can be tracked NOW for your location showing map with azimuth and elevation plus other details from your city location.







IsCatalogInMostPopularTable: catalog: 54193, numindb: 8
Update: records affected: 1



GetName: 54193 STARLINK-5263

Hit Count: updated at: Fri, 09 Dec 2022 20:06:24 GMT